Wind_Speed
74 76 76 74 71 68 67 66 66 65 65 66 68 69 67 58 47 37 30 25 20 16 12 9 6 5 9 16 23 31 38 44 47 50 53 55 62 72 83 91 100 108 113
73 75 75 73 70 68 66 65 65 64 65 66 67 68 68 60 49 39 32 26 21 16 12 9 7 6 9 13 18 25 31 38 42 45 50 52 57 66 76 85 94 103 110
73 74 74 72 69 67 65 64 64 63 64 65 66 67 68 63 53 43 35 28 22 17 13 10 8 8 9 12 15 20 26 32 37 41 46 49 53 61 70 79 88 98 106
72 74 73 72 69 66 64 63 63 63 63 63 65 66 67 65 57 47 39 31 24 18 13 10 8 7 8 10 13 17 21 26 32 37 42 46 50 58 66 75 83 93 102
71 73 73 71 68 66 64 63 62 62 62 63 64 65 66 66 61 52 42 34 26 19 14 9 7 7 7 9 11 14 18 22 28 33 37 42 48 55 63 71 79 88 97
70 72 72 70 68 66 64 62 61 61 61 62 63 63 65 65 62 55 46 37 28 21 15 10 5 5 6 8 10 12 15 19 24 29 34 40 46 53 60 67 75 83 91
70 71 71 70 68 65 63 61 61 61 60 60 61 62 63 63 62 57 49 40 31 23 16 10 4 3 4 6 9 11 14 17 21 26 31 38 44 51 58 64 72 79 87
69 70 71 70 67 65 63 61 60 60 60 59 59 60 61 62 62 58 51 43 33 25 18 12 6 1 3 5 7 10 13 16 19 24 29 36 43 49 56 62 68 74 82
68 69 70 69 67 64 62 60 59 58 59 58 58 59 59 60 61 58 53 45 37 28 20 13 8 5 4 5 7 9 11 14 18 23 28 35 42 49 54 59 64 70 77
67 68 69 68 66 63 61 60 58 57 58 58 58 57 57 58 58 58 54 47 39 30 22 15 10 7 6 7 7 9 10 12 17 22 27 34 41 48 52 56 60 66 73
66 67 68 68 65 63 61 59 57 56 56 56 56 56 55 55 56 56 55 49 41 32 24 17 12 9 8 8 8 8 9 11 15 21 26 33 40 46 50 54 57 62 69
64 66 67 67 66 63 60 58 57 55 54 54 53 53 53 53 53 54 53 50 43 34 25 18 13 10 9 9 9 8 8 10 14 20 26 32 38 44 48 51 54 58 63
63 64 66 67 66 63 60 58 56 54 52 52 51 51 51 51 50 50 51 50 44 36 27 20 14 10 8 8 9 8 8 10 14 19 26 32 37 42 46 48 50 53 59
62 63 64 66 66 64 60 57 54 53 51 50 50 50 50 49 49 48 49 49 46 39 29 21 15 10 7 7 8 8 8 10 14 18 25 31 36 40 44 45 47 49 54
61 61 63 64 65 64 61 57 54 52 51 50 49 49 48 48 47 47 47 47 47 43 34 24 17 11 7 6 7 8 9 11 14 18 24 29 34 39 41 43 44 46 50
60 60 61 62 63 63 61 58 55 52 51 50 49 48 47 47 46 45 44 44 44 43 38 29 19 12 7 5 5 7 9 11 14 18 23 28 32 36 39 40 42 44 47
59 58 59 60 62 61 59 56 54 52 50 49 47 47 46 45 45 43 42 41 41 42 40 33 24 15 8 4 4 7 9 11 14 18 22 26 30 34 37 39 41 43 46
57 57 57 58 60 60 59 56 52 50 48 47 46 45 44 44 43 42 41 39 39 38 38 36 29 20 11 4 3 6 9 12 15 18 21 25 29 32 35 37 39 42 45
56 55 55 56 58 59 59 57 53 49 47 45 44 44 43 42 41 40 39 38 36 35 36 36 33 26 17 7 1 6 10 13 15 18 21 24 27 30 33 35 38 40 44
55 53 53 54 56 57 58 57 54 50 46 44 42 41 41 41 40 39 38 36 35 34 34 35 35 32 23 13 3 5 11 14 16 19 21 23 26 28 31 34 37 39 42
53 52 51 52 53 55 56 56 54 50 46 43 40 39 40 40 39 38 37 35 34 33 33 33 35 35 30 21 10 3 10 15 18 20 22 23 24 26 28 31 35 39 42
52 50 50 50 51 53 55 55 54 50 46 42 40 39 39 39 38 37 36 35 33 32 32 32 34 35 34 28 18 7 7 14 19 22 24 24 25 26 27 29 32 36 41
50 48 48 48 49 51 53 54 53 50 46 42 39 38 37 38 38 37 36 35 33 32 31 31 33 34 36 33 26 15 6 11 19 24 26 27 27 27 27 28 30 34 38
48 46 46 46 47 49 51 52 52 50 47 42 39 37 36 36 37 36 36 34 33 31 30 31 32 34 36 36 31 23 12 7 16 24 28 30 29 29 28 28 29 31 35
46 44 44 44 45 46 49 50 51 50 47 43 39 36 35 35 35 36 35 34 33 32 30 30 31 33 36 37 36 30 19 8 10 20 28 32 33 32 31 30 30 30 33
44 42 42 42 42 44 46 48 49 49 47 43 39 36 34 34 34 34 35 34 33 32 30 30 31 33 35 37 38 35 27 15 5 14 24 31 34 35 34 33 31 31 33
Wind_Direction
344 344 345 345 345 346 347 349 349 350 352 353 355 356 356 355 351 346 341 335 332 330 326 321 305 264 232 223 219 218 219 219 221 225 226 222 217 213 210 209 207 205 202
346 346 346 346 347 348 349 351 352 352 354 355 357 358 359 359 356 352 346 337 330 323 313 300 281 251 227 221 218 218 219 219 221 224 225 222 216 211 209 207 206 205 202
347 348 348 348 348 349 351 353 354 354 356 357 359 360 1 1 0 357 352 345 336 326 312 292 270 247 228 219 217 216 217 218 220 222 223 220 214 209 206 205 205 204 202
348 349 349 349 350 351 352 354 355 356 357 359 0 1 3 3 3 2 358 352 344 336 324 298 268 245 229 219 215 214 215 216 218 220 220 217 210 205 203 203 203 203 202
349 350 350 350 351 352 353 355 356 358 359 0 2 3 4 5 5 5 3 359 353 346 338 320 274 241 227 217 212 211 211 213 215 215 215 211 205 201 199 200 201 202 202
350 351 351 352 352 353 354 355 357 359 0 1 3 4 6 7 7 6 5 4 0 355 349 338 296 242 227 211 205 203 205 207 208 209 208 204 200 196 196 197 198 200 201
350 351 352 353 353 354 355 356 358 360 1 2 3 5 7 8 9 8 7 7 6 3 0 355 338 247 218 203 198 196 197 198 200 201 201 198 194 192 192 194 196 199 200
351 352 353 353 354 354 355 356 358 360 2 3 4 5 7 9 10 10 9 10 10 9 9 10 13 22 179 179 182 183 185 188 192 194 194 191 189 188 189 191 194 197 199
351 352 353 354 354 355 355 356 358 360 2 4 5 6 8 9 11 11 12 13 13 13 16 22 35 65 115 142 156 164 172 180 186 187 187 186 184 184 186 188 192 195 197
351 352 353 354 355 355 356 357 358 360 2 4 6 7 8 9 11 13 14 15 15 16 20 28 42 64 94 119 135 148 159 173 180 182 183 182 181 182 183 185 189 193 196
351 352 353 354 355 356 356 357 359 360 2 3 5 6 8 10 11 13 15 16 16 18 22 31 43 64 89 106 117 132 146 163 175 178 178 178 178 179 181 183 187 191 194
350 352 353 354 355 356 356 357 359 1 2 3 4 6 8 10 12 14 16 17 18 19 23 31 44 64 86 101 108 119 137 156 169 175 176 175 175 177 180 183 186 189 193
350 351 352 354 355 356 357 358 359 1 2 3 4 6 8 10 12 15 17 18 19 20 24 30 41 60 84 99 109 116 133 151 164 171 174 173 173 175 178 181 184 188 192
349 350 351 353 354 355 357 358 359 0 2 3 4 6 7 10 12 15 17 19 20 22 24 29 37 52 78 96 113 122 133 151 162 168 172 172 173 174 176 179 183 185 189
348 349 351 352 353 354 356 357 358 360 2 3 5 6 7 9 12 14 16 18 20 22 23 26 31 43 64 94 113 127 137 151 162 167 170 172 172 174 176 179 181 184 187
347 349 350 351 353 354 355 356 357 359 1 3 4 5 7 9 11 13 15 17 20 22 23 24 26 33 51 83 120 137 147 154 162 167 171 174 174 175 177 179 181 183 185
346 348 349 351 352 353 355 356 356 357 360 2 4 5 6 8 9 11 13 16 19 21 22 23 24 27 37 70 125 151 159 164 166 169 173 176 177 178 179 180 182 183 185
345 346 348 350 351 353 354 355 356 357 358 360 2 4 6 7 8 10 12 15 17 19 21 22 23 24 26 41 146 166 172 174 174 174 175 178 181 182 183 184 185 185 186
343 345 347 348 350 351 353 354 356 357 358 359 1 3 5 6 7 9 11 13 15 17 19 21 21 21 20 21 176 189 185 184 183 182 182 182 184 186 188 189 189 189 189
342 343 345 347 348 350 352 354 355 356 357 359 0 2 4 5 6 8 9 11 13 15 16 18 19 19 19 14 356 212 201 196 192 190 188 188 188 189 191 193 194 193 193
340 341 343 345 347 348 351 352 354 355 356 358 359 1 3 5 6 7 8 9 11 13 15 16 18 18 18 16 5 268 215 206 201 197 195 193 192 193 194 195 197 197 196
338 340 342 343 345 347 349 351 353 354 355 357 358 360 2 4 5 6 7 8 9 11 13 14 15 16 16 15 11 349 240 216 208 204 201 199 196 196 196 198 199 199 199
336 338 340 342 343 345 347 350 352 353 354 356 357 359 0 2 4 4 6 7 7 9 11 12 13 14 14 13 10 1 309 230 215 209 206 204 201 199 198 199 200 201 201
334 336 338 340 342 344 346 348 350 352 353 354 356 357 359 0 2 3 4 5 6 7 8 10 11 11 12 12 10 5 350 264 222 214 209 206 205 202 200 199 200 201 202
332 333 336 338 340 342 344 346 349 351 352 353 354 356 357 359 1 2 3 4 5 6 6 7 9 10 10 11 11 9 2 329 235 217 211 208 205 203 202 200 200 200 201
329 331 333 336 338 340 342 345 347 349 351 352 353 354 356 358 359 1 2 3 4 4 5 6 7 8 10 10 11 11 8 358 283 222 213 208 205 203 202 201 200 200 199
Height
5601 5582 5563 5545 5527 5510 5493 5475 5458 5442 5425 5408 5390 5372 5354 5336 5321 5309 5300 5292 5286 5281 5276 5273 5270 5269 5270 5272 5275 5280 5286 5294 5302 5309 5318 5329 5341 5356 5374 5395 5417 5441 5466
5594 5577 5558 5540 5523 5506 5489 5472 5455 5439 5422 5405 5388 5370 5352 5335 5320 5308 5298 5290 5284 5279 5275 5271 5269 5268 5268 5270 5273 5277 5282 5289 5297 5303 5311 5322 5334 5348 5365 5385 5406 5429 5454
5589 5572 5554 5537 5519 5502 5486 5470 5453 5437 5421 5404 5387 5370 5353 5335 5320 5307 5296 5288 5281 5276 5272 5270 5268 5267 5268 5269 5271 5275 5279 5285 5291 5298 5305 5315 5327 5341 5358 5377 5397 5419 5442
5585 5568 5551 5533 5516 5500 5484 5468 5452 5436 5420 5404 5387 5371 5353 5336 5320 5307 5296 5287 5280 5274 5271 5268 5267 5266 5267 5268 5270 5273 5277 5281 5287 5293 5300 5310 5322 5335 5351 5369 5389 5409 5432
5581 5564 5547 5531 5514 5498 5482 5467 5451 5435 5420 5404 5388 5372 5355 5338 5322 5308 5297 5287 5279 5274 5270 5267 5266 5266 5266 5267 5269 5272 5275 5279 5284 5289 5296 5305 5317 5330 5346 5362 5382 5402 5424
5578 5562 5545 5528 5512 5496 5481 5466 5451 5436 5420 5405 5389 5374 5358 5342 5326 5311 5299 5289 5281 5274 5270 5267 5266 5266 5266 5267 5269 5271 5274 5277 5281 5287 5293 5302 5314 5327 5342 5359 5377 5395 5416
5575 5559 5543 5526 5511 5495 5481 5466 5452 5437 5422 5407 5391 5377 5362 5346 5331 5316 5302 5292 5283 5276 5271 5268 5266 5266 5266 5268 5269 5271 5273 5277 5281 5285 5292 5301 5312 5325 5340 5355 5372 5390 5410
5573 5557 5541 5525 5509 5494 5480 5466 5452 5438 5424 5409 5394 5380 5365 5350 5336 5321 5307 5296 5286 5279 5274 5270 5268 5267 5268 5269 5270 5272 5275 5278 5281 5286 5292 5301 5312 5324 5338 5353 5369 5387 5406
5571 5555 5540 5524 5509 5495 5481 5467 5453 5439 5425 5411 5397 5383 5369 5355 5341 5327 5313 5301 5291 5284 5278 5274 5272 5271 5271 5271 5273 5275 5277 5280 5283 5287 5293 5301 5312 5324 5337 5352 5367 5383 5401
5569 5554 5539 5524 5510 5495 5482 5468 5453 5439 5426 5412 5399 5386 5373 5360 5347 5333 5319 5307 5297 5289 5283 5279 5277 5275 5275 5276 5277 5279 5281 5283 5286 5290 5296 5303 5313 5324 5337 5351 5365 5381 5397
5568 5554 5539 5525 5510 5496 5482 5469 5455 5441 5427 5413 5401 5389 5377 5365 5353 5340 5326 5314 5304 5296 5290 5286 5283 5281 5281 5281 5282 5283 5285 5287 5289 5293 5299 5306 5315 5326 5338 5351 5365 5379 5394
5568 5554 5540 5525 5511 5497 5483 5470 5456 5443 5430 5417 5406 5394 5382 5370 5359 5346 5333 5322 5311 5303 5297 5292 5289 5288 5287 5287 5288 5288 5290 5292 5294 5298 5303 5310 5318 5328 5340 5352 5365 5377 5392
5566 5553 5540 5526 5512 5498 5485 5472 5459 5446 5433 5422 5410 5398 5387 5375 5364 5353 5341 5330 5319 5310 5304 5299 5296 5294 5293 5293 5294 5294 5295 5297 5299 5303 5307 5314 5322 5331 5342 5353 5365 5377 5391
5565 5552 5539 5525 5512 5498 5486 5473 5461 5449 5437 5425 5413 5402 5390 5379 5369 5358 5348 5338 5327 5318 5311 5306 5302 5300 5299 5299 5299 5300 5301 5302 5304 5308 5312 5318 5326 5334 5344 5355 5366 5377 5390
5563 5551 5538 5525 5511 5498 5486 5474 5462 5450 5438 5427 5416 5405 5394 5383 5372 5362 5352 5343 5334 5325 5317 5312 5308 5306 5305 5305 5305 5305 5306 5308 5310 5313 5317 5323 5330 5338 5347 5356 5366 5377 5388
5562 5550 5537 5524 5511 5497 5484 5472 5461 5451 5439 5427 5417 5406 5396 5386 5376 5367 5358 5349 5341 5332 5324 5318 5314 5311 5310 5309 5309 5310 5311 5313 5315 5318 5322 5327 5333 5341 5349 5358 5367 5376 5387
5561 5549 5537 5524 5511 5498 5485 5473 5461 5450 5440 5429 5419 5409 5399 5389 5380 5371 5363 5355 5347 5339 5331 5325 5319 5316 5314 5313 5313 5314 5315 5317 5319 5322 5326 5331 5336 5343 5351 5359 5367 5376 5386
5559 5547 5536 5524 5512 5500 5487 5476 5464 5453 5442 5432 5422 5412 5403 5393 5384 5376 5367 5359 5352 5345 5338 5331 5325 5320 5318 5316 5316 5317 5318 5320 5322 5325 5329 5333 5339 5345 5352 5359 5367 5375 5384
5557 5546 5535 5524 5512 5500 5488 5477 5466 5455 5444 5434 5424 5414 5405 5397 5388 5380 5372 5364 5357 5350 5343 5337 5330 5324 5320 5318 5318 5318 5320 5322 5324 5327 5331 5335 5340 5345 5352 5358 5366 5374 5382
5555 5544 5534 5524 5512 5501 5489 5477 5466 5456 5446 5436 5427 5417 5408 5400 5392 5383 5375 5368 5361 5354 5348 5341 5334 5328 5323 5320 5318 5318 5320 5322 5324 5327 5331 5335 5339 5345 5350 5357 5364 5371 5379
5552 5542 5532 5522 5512 5501 5489 5478 5467 5456 5447 5438 5429 5420 5412 5403 5395 5387 5379 5371 5364 5358 5351 5345 5338 5332 5325 5321 5318 5317 5318 5320 5323 5326 5330 5333 5338 5343 5348 5354 5361 5368 5376
5549 5539 5530 5520 5510 5500 5489 5478 5467 5457 5447 5438 5429 5421 5413 5405 5397 5389 5381 5374 5367 5360 5354 5348 5341 5335 5328 5322 5318 5315 5315 5317 5319 5323 5327 5331 5335 5340 5345 5351 5357 5363 5371
5545 5536 5527 5518 5509 5499 5488 5477 5467 5457 5447 5438 5430 5422 5414 5406 5398 5391 5383 5376 5369 5362 5356 5350 5344 5337 5331 5324 5318 5314 5312 5312 5314 5318 5322 5327 5332 5337 5342 5347 5352 5359 5366
5540 5532 5524 5515 5506 5497 5487 5477 5466 5456 5447 5438 5430 5422 5415 5407 5400 5392 5385 5378 5371 5364 5358 5352 5346 5339 5332 5326 5319 5313 5309 5308 5309 5312 5317 5322 5327 5332 5338 5343 5348 5354 5360
5535 5528 5520 5512 5503 5495 5485 5475 5465 5455 5446 5438 5430 5422 5415 5408 5400 5393 5386 5379 5372 5366 5359 5353 5347 5341 5334 5327 5319 5312 5307 5304 5304 5306 5310 5315 5321 5327 5333 5339 5344 5350 5355
5530 5523 5516 5508 5500 5492 5483 5474 5464 5454 5445 5437 5429 5422 5415 5408 5401 5394 5387 5380 5373 5367 5360 5354 5348 5342 5335 5328 5320 5313 5306 5302 5299 5300 5303 5308 5315 5321 5328 5334 5340 5345 5351